Wind_Speed
9 9 9 9 9 9 9 8 8 9 9 9 9 10 10 10 11 11 10 10 10 10 10 10 11 11 11 11 11 11 11 12 13 15 15 15 15 15 15 15 15 15 15
9 9 8 9 9 9 10 9 9 9 9 9 9 10 11 11 11 11 10 10 10 11 11 11 11 11 11 11 11 11 11 11 13 14 15 15 16 16 15 15 15 16 16
9 8 8 9 9 10 9 9 9 10 10 10 11 11 11 11 11 12 12 12 12 12 12 12 12 11 10 10 11 11 12 12 12 13 13 14 16 17 17 16 16 16 16
10 10 9 10 10 10 9 9 10 10 11 11 12 11 11 12 13 13 12 12 12 12 12 12 11 10 10 11 11 12 12 13 13 14 14 14 16 17 17 18 18 17 17
11 11 11 11 12 11 10 9 10 11 11 12 12 12 12 13 14 13 13 13 13 13 13 12 11 11 11 11 12 12 13 13 14 14 15 16 16 17 18 18 19 19 18
12 12 11 11 12 11 11 11 11 12 12 12 12 13 13 13 14 13 13 13 14 14 14 13 12 13 12 12 13 13 14 15 15 15 16 16 17 17 18 18 19 20 20
11 12 12 12 11 11 11 12 12 12 13 13 13 13 14 14 14 14 14 14 14 14 14 14 14 14 13 13 14 15 16 16 17 16 17 17 17 17 18 18 19 20 21
11 11 11 12 12 12 12 12 12 13 13 13 13 14 14 15 15 14 15 15 15 15 15 15 15 15 14 14 15 16 17 17 18 19 19 18 18 18 18 18 19 20 20
12 11 12 12 12 12 12 12 12 13 13 14 14 14 15 15 15 15 15 15 15 15 15 15 15 16 15 16 16 16 17 17 18 19 19 19 19 18 19 19 19 18 19
13 12 12 12 13 13 13 12 12 13 14 14 15 15 15 16 16 15 16 16 16 16 16 16 16 16 16 17 17 17 17 18 18 18 18 19 19 20 20 19 18 18 19
13 14 13 13 13 13 13 13 14 14 15 16 16 16 16 17 16 15 15 16 16 16 17 17 17 17 17 18 18 18 18 18 18 18 18 18 19 19 20 20 19 19 20
13 13 14 15 14 14 13 14 15 15 16 16 17 17 17 17 17 16 16 16 16 17 17 17 17 18 18 18 19 19 20 19 19 18 18 18 19 18 18 19 20 21 21
15 14 15 16 16 15 15 15 16 17 17 17 17 17 18 18 18 18 17 17 18 18 18 19 18 19 19 20 20 20 20 20 20 19 19 19 19 19 18 18 19 20 20
17 16 16 16 16 16 16 17 17 17 18 18 18 19 19 20 20 19 19 19 19 19 20 20 20 20 20 21 20 20 20 20 21 21 20 19 19 19 19 19 20 20 21
18 18 17 17 18 17 17 18 18 17 18 19 19 20 20 20 20 20 20 20 20 21 20 20 21 21 21 21 21 21 21 21 22 22 21 21 20 20 21 21 21 21 22
20 19 19 19 19 19 19 19 18 18 18 19 20 20 21 20 21 21 21 21 21 21 21 21 22 22 22 22 22 22 22 23 23 23 23 22 22 22 22 22 22 23 23
21 21 21 20 20 20 20 19 19 19 20 20 21 21 21 21 22 22 22 22 22 23 22 23 23 23 23 23 23 23 23 24 24 24 24 24 24 23 23 23 23 24 24
21 21 22 21 21 21 21 20 20 20 21 21 22 22 22 22 22 23 23 23 23 23 24 24 24 25 25 24 25 25 25 25 25 25 25 25 25 23 23 23 24 25 25
22 23 23 22 22 22 22 22 22 22 23 22 22 23 23 23 23 23 24 24 24 25 25 25 26 26 25 26 26 26 26 26 26 26 26 25 24 24 24 24 24 24 25
23 24 23 23 24 24 23 24 24 25 25 25 25 25 25 25 24 24 25 25 26 26 27 26 26 26 26 27 27 27 27 27 27 27 25 24 24 24 24 24 24 24 24
24 24 24 24 24 24 24 25 25 25 26 26 26 25 25 26 26 26 27 27 27 28 27 26 27 27 27 27 27 28 28 29 28 27 26 25 24 24 24 24 24 24 23
26 25 25 25 25 25 25 25 26 26 26 26 26 26 27 27 27 28 28 28 29 29 28 28 28 27 28 28 27 28 29 29 29 28 27 26 25 25 24 24 24 24 23
26 25 26 25 25 25 25 26 26 26 27 27 27 27 27 28 29 30 29 29 29 28 28 29 29 29 29 28 28 28 29 29 29 28 28 28 27 26 26 25 24 24 24
26 25 26 26 26 26 26 27 27 27 27 27 27 27 28 29 29 30 30 29 29 29 29 29 30 29 28 28 28 28 28 28 29 29 29 28 27 27 26 25 24 24 25
26 26 26 26 27 28 27 27 27 28 28 28 27 28 28 28 28 29 29 30 30 30 31 31 30 29 28 28 28 28 28 29 29 28 28 28 28 27 26 25 24 24 24
27 27 27 28 28 28 28 28 28 28 28 28 28 28 28 28 28 29 29 29 30 30 31 30 29 28 29 29 29 29 29 29 29 29 29 29 27 26 26 25 24 23 23
Wind_Direction
352 349 349 351 351 352 350 348 347 347 346 344 342 343 343 340 337 333 329 326 323 320 315 310 301 296 294 292 293 291 282 279 274 272 271 267 265 267 268 263 263 264 264
343 346 347 347 348 348 350 350 348 344 344 343 342 344 344 344 343 341 334 329 326 323 318 314 308 301 297 294 293 290 287 285 283 276 272 270 267 265 266 263 264 263 263
339 340 342 346 347 345 345 348 350 347 344 342 342 344 345 344 344 343 340 334 327 323 319 317 313 305 301 296 293 291 290 289 288 285 280 271 267 266 266 263 263 265 265
338 335 338 343 342 341 342 342 344 344 344 343 342 343 343 341 340 338 336 333 334 331 324 320 316 305 300 297 296 297 296 293 290 286 283 279 274 268 266 264 264 266 266
329 332 334 338 336 334 335 336 338 338 338 339 338 339 340 338 338 337 335 333 333 332 329 326 321 315 307 300 300 301 297 294 290 287 284 281 279 273 268 267 267 267 267
320 324 330 331 331 331 332 333 335 334 334 333 333 334 334 336 337 337 333 331 329 328 328 327 322 317 312 307 304 303 299 297 294 289 286 283 282 276 272 270 269 268 267
316 320 325 329 333 334 332 334 333 333 334 334 334 334 333 334 334 335 334 330 329 329 328 326 322 316 311 307 306 305 303 298 297 292 289 286 283 280 274 271 270 269 267
311 317 323 325 331 333 331 331 331 333 334 334 334 335 334 333 333 332 331 330 328 329 329 328 323 317 313 309 305 303 304 303 300 295 291 289 284 281 277 273 272 271 268
310 315 319 321 324 327 329 330 330 331 333 334 333 333 333 331 330 330 330 329 328 329 329 328 325 320 316 311 309 309 308 306 303 299 294 292 289 285 279 278 276 273 271
308 307 310 314 319 322 324 326 328 328 329 330 332 331 331 332 329 329 329 327 327 328 328 326 324 321 318 313 311 313 310 308 306 303 299 294 290 286 281 278 276 274 272
308 307 310 311 314 316 316 319 322 324 325 328 330 329 329 329 329 327 328 327 326 326 327 327 325 322 319 316 314 314 312 310 307 305 300 295 290 286 282 278 277 276 273
304 308 308 308 311 312 313 316 318 319 320 322 325 326 327 326 325 324 324 323 323 323 323 323 324 322 320 318 316 316 314 313 310 307 301 297 293 289 283 282 280 279 277
298 301 301 302 306 308 310 314 314 314 317 317 319 322 323 323 322 321 322 320 321 321 321 321 320 320 319 318 316 315 315 315 314 311 305 298 295 292 288 285 283 282 280
295 298 298 298 301 303 308 311 311 310 313 316 318 319 319 320 320 319 319 318 319 319 318 320 319 319 318 317 316 314 314 314 314 313 309 303 298 293 289 287 285 284 281
297 295 294 297 298 300 303 305 307 308 311 314 317 318 318 318 318 317 317 317 317 318 318 318 318 318 318 318 317 315 313 312 313 313 310 305 300 295 289 286 285 284 282
291 290 291 292 296 298 299 299 301 304 308 312 315 315 316 315 314 315 314 315 317 318 318 317 317 317 318 318 317 315 313 312 311 310 308 305 300 294 289 286 285 284 281
285 286 288 290 293 295 296 294 296 300 305 309 311 313 313 313 313 312 312 313 315 316 315 315 316 316 315 315 315 315 313 309 310 310 307 304 300 295 290 287 284 282 280
287 286 289 290 293 291 295 292 295 299 303 306 309 310 310 309 310 309 308 308 310 311 312 312 313 314 313 313 314 314 314 313 310 309 307 304 301 296 292 287 285 283 282
286 287 289 291 291 290 294 294 296 296 299 301 304 307 306 306 307 307 307 307 308 308 309 309 310 311 312 312 313 313 312 312 311 310 307 305 302 301 296 291 287 284 282
284 285 287 287 288 290 292 294 294 296 298 300 301 303 304 304 304 305 305 305 305 306 307 308 308 308 309 311 311 311 310 311 312 311 311 307 305 303 301 295 289 285 282
281 284 285 285 287 289 291 292 293 295 296 298 299 300 303 303 303 304 304 305 304 304 305 305 306 306 307 309 309 309 309 309 310 310 309 308 306 304 302 297 292 288 285
281 281 283 285 286 287 289 291 292 293 294 296 297 298 300 300 301 302 302 302 304 302 302 303 305 306 308 308 307 307 308 309 309 308 307 306 305 305 303 299 294 289 287
277 280 282 284 285 286 287 290 292 292 293 294 295 296 297 298 298 298 299 300 301 302 303 303 304 305 305 306 305 306 307 308 307 307 306 304 303 302 301 299 295 289 286
277 279 282 283 284 284 286 288 290 291 292 293 295 295 297 298 297 297 297 298 299 301 302 303 303 304 305 305 305 307 307 306 306 305 304 303 303 303 301 298 294 291 288
277 278 281 283 284 285 286 288 289 291 292 293 295 296 296 296 296 297 298 298 298 298 299 301 303 303 303 304 304 305 305 305 305 306 306 306 305 304 302 299 295 293 291
276 278 280 282 283 285 285 286 287 290 291 292 294 295 295 295 296 297 299 299 298 298 299 300 300 302 303 303 304 306 306 306 306 307 307 306 305 304 302 299 297 293 291
Height
5902 5900 5899 5898 5897 5896 5894 5893 5892 5891 5889 5888 5887 5886 5884 5883 5881 5880 5878 5877 5876 5874 5873 5872 5871 5870 5870 5869 5869 5868 5868 5868 5868 5868 5869 5869 5869 5870 5870 5871 5872 5873 5873
5901 5900 5899 5898 5897 5895 5894 5893 5892 5890 5889 5888 5886 5885 5884 5882 5881 5879 5877 5875 5874 5872 5871 5870 5869 5868 5867 5867 5866 5866 5866 5865 5865 5865 5865 5865 5866 5866 5866 5867 5868 5869 5869
5901 5899 5898 5897 5896 5895 5894 5893 5891 5890 5889 5887 5886 5884 5883 5881 5880 5878 5876 5874 5873 5871 5869 5868 5866 5865 5864 5864 5864 5864 5863 5863 5862 5861 5861 5862 5862 5862 5862 5863 5864 5864 5865
5900 5899 5897 5896 5895 5894 5893 5892 5891 5889 5888 5887 5885 5884 5882 5880 5879 5877 5875 5873 5871 5869 5867 5865 5864 5863 5862 5861 5861 5861 5860 5859 5859 5858 5858 5858 5857 5858 5858 5859 5859 5859 5860
5899 5898 5896 5895 5894 5893 5892 5891 5890 5889 5887 5886 5884 5883 5881 5879 5877 5875 5874 5872 5870 5868 5866 5864 5862 5860 5859 5859 5858 5858 5857 5856 5855 5855 5854 5854 5853 5853 5853 5854 5855 5855 5855
5899 5897 5896 5895 5893 5892 5891 5890 5889 5888 5886 5885 5883 5881 5880 5878 5876 5874 5872 5870 5868 5866 5864 5862 5860 5859 5858 5856 5856 5855 5853 5853 5852 5851 5850 5850 5849 5848 5848 5849 5849 5850 5850
5898 5896 5895 5893 5892 5891 5890 5889 5888 5886 5885 5883 5882 5880 5878 5876 5874 5872 5870 5868 5867 5864 5862 5860 5858 5857 5855 5854 5853 5851 5850 5849 5848 5847 5846 5845 5844 5844 5843 5843 5844 5844 5845
5896 5895 5894 5892 5891 5890 5888 5887 5886 5885 5883 5882 5880 5878 5876 5874 5872 5870 5868 5866 5864 5862 5860 5858 5856 5854 5852 5851 5849 5848 5847 5845 5844 5843 5842 5841 5840 5839 5839 5838 5839 5839 5839
5894 5893 5892 5891 5890 5888 5887 5886 5885 5883 5882 5880 5878 5876 5874 5872 5870 5868 5866 5864 5862 5860 5858 5856 5854 5852 5849 5848 5846 5844 5843 5841 5840 5838 5837 5836 5835 5834 5834 5833 5833 5834 5834
5892 5891 5890 5889 5888 5887 5885 5884 5883 5882 5880 5878 5876 5874 5872 5870 5868 5866 5864 5862 5860 5858 5856 5853 5851 5849 5846 5845 5843 5841 5839 5838 5836 5834 5832 5831 5830 5829 5828 5828 5828 5828 5828
5890 5889 5887 5887 5886 5885 5884 5882 5881 5880 5878 5876 5874 5872 5870 5868 5866 5864 5862 5860 5858 5856 5853 5851 5848 5846 5844 5842 5840 5838 5836 5834 5832 5830 5828 5827 5825 5824 5823 5823 5823 5823 5823
5888 5887 5886 5885 5884 5883 5882 5880 5879 5878 5876 5874 5872 5870 5868 5866 5864 5861 5859 5857 5855 5853 5851 5848 5845 5843 5841 5839 5836 5834 5832 5830 5828 5826 5824 5822 5821 5819 5818 5818 5818 5818 5817
5886 5885 5884 5882 5881 5880 5879 5878 5876 5875 5873 5872 5870 5867 5865 5863 5861 5858 5856 5854 5852 5850 5848 5845 5843 5840 5838 5835 5833 5830 5828 5826 5823 5821 5820 5818 5816 5815 5814 5813 5813 5812 5812
5883 5882 5881 5880 5879 5878 5877 5875 5874 5872 5870 5868 5866 5865 5862 5860 5858 5855 5853 5851 5849 5846 5844 5842 5839 5836 5834 5831 5829 5826 5824 5821 5819 5817 5814 5812 5811 5809 5808 5808 5807 5806 5806
5879 5878 5878 5877 5876 5875 5874 5872 5871 5869 5867 5865 5863 5861 5859 5857 5854 5852 5850 5847 5845 5843 5840 5838 5835 5833 5830 5827 5824 5821 5819 5817 5814 5812 5809 5807 5806 5804 5803 5802 5801 5801 5800
5875 5875 5874 5873 5872 5871 5870 5868 5867 5866 5864 5862 5860 5858 5856 5853 5851 5849 5846 5844 5841 5838 5836 5833 5831 5828 5826 5823 5820 5817 5814 5812 5809 5807 5804 5802 5800 5798 5797 5796 5795 5794 5794
5871 5870 5869 5869 5868 5867 5865 5864 5863 5862 5860 5858 5856 5854 5851 5849 5847 5844 5842 5840 5837 5835 5832 5829 5826 5824 5821 5818 5815 5812 5809 5806 5804 5801 5799 5796 5794 5792 5791 5789 5788 5788 5787
5867 5866 5865 5863 5862 5861 5860 5859 5858 5856 5855 5853 5851 5849 5847 5845 5842 5840 5838 5835 5832 5830 5827 5824 5822 5819 5816 5813 5810 5807 5804 5801 5798 5795 5793 5790 5788 5786 5784 5783 5782 5781 5780
5862 5861 5860 5859 5858 5856 5855 5854 5853 5851 5849 5847 5846 5844 5842 5840 5837 5835 5832 5830 5827 5825 5822 5819 5816 5814 5811 5808 5804 5801 5798 5795 5793 5789 5786 5783 5782 5780 5777 5776 5775 5774 5773
5857 5856 5855 5854 5852 5851 5849 5848 5847 5845 5844 5842 5841 5838 5836 5834 5832 5830 5827 5825 5822 5819 5816 5813 5810 5808 5805 5802 5799 5795 5792 5789 5786 5783 5780 5778 5775 5773 5771 5769 5768 5767 5766
5851 5851 5850 5849 5848 5846 5845 5843 5841 5840 5838 5836 5835 5832 5830 5828 5826 5824 5821 5818 5816 5813 5810 5807 5805 5802 5799 5796 5792 5789 5786 5783 5780 5777 5774 5772 5769 5767 5764 5762 5761 5760 5759
5845 5844 5844 5843 5842 5841 5839 5838 5836 5834 5832 5830 5828 5826 5824 5822 5819 5817 5815 5812 5809 5806 5803 5801 5798 5795 5792 5789 5786 5783 5779 5776 5773 5770 5768 5765 5763 5760 5758 5756 5754 5753 5752
5839 5838 5837 5837 5836 5834 5833 5831 5829 5828 5826 5824 5822 5820 5818 5815 5813 5810 5808 5805 5802 5800 5797 5794 5791 5788 5785 5782 5779 5776 5773 5769 5766 5763 5761 5758 5756 5753 5750 5749 5747 5746 5744
5832 5831 5831 5830 5829 5827 5826 5824 5823 5821 5819 5817 5815 5813 5811 5809 5806 5803 5800 5798 5795 5792 5789 5787 5784 5780 5777 5775 5772 5769 5766 5763 5760 5756 5754 5751 5748 5746 5743 5741 5739 5738 5737
5825 5825 5824 5823 5822 5820 5819 5818 5816 5814 5812 5810 5808 5806 5804 5802 5799 5796 5793 5790 5788 5785 5783 5780 5776 5773 5771 5767 5764 5761 5759 5756 5753 5749 5747 5744 5741 5739 5736 5734 5732 5731 5730
5817 5817 5816 5815 5814 5813 5812 5810 5809 5807 5805 5803 5801 5799 5797 5794 5792 5789 5786 5783 5781 5778 5775 5772 5769 5766 5764 5760 5757 5754 5751 5748 5744 5742 5739 5736 5733 5731 5729 5727 5725 5723 5722